This is the latest recevied weather packets stored in our database for station/object KB3FKJ. If no packets are shown the sender has not sent any weather packets the latest 10 day(s).
| Time | Temp. | Humidity | Pressure | Rain* | Wind** | Luminosity | Snow |
|---|---|---|---|---|---|---|---|
| 1777485315 | 12.78° C | 91% | 1008.7 hPa | 0 mm | - | 196 W/m² | - |
| 1777485012 | 12.78° C | 92% | 1008.5 hPa | 0 mm | - | 217 W/m² | - |
| 1777484709 | 12.78° C | 93% | 1008.4 hPa | 0 mm | - | 185 W/m² | - |
| 1777484406 | 12.78° C | 93% | 1008.5 hPa | 0 mm | - | 139 W/m² | - |
| 1777484102 | 12.22° C | 92% | 1008.6 hPa | 0 mm | - | 162 W/m² | - |
| 1777483798 | 12.22° C | 92% | 1009 hPa | 0 mm | - | 209 W/m² | - |
| 1777483495 | 12.78° C | 94% | 1009.1 hPa | 0 mm | - | 231 W/m² | - |
| 1777483190 | 12.22° C | 94% | 1009.2 hPa | 0 mm | - | 265 W/m² | - |
| 1777482887 | 11.67° C | 95% | 1009.4 hPa | 1.27 mm | - | 174 W/m² | - |
| 1777482582 | 11.67° C | 95% | 1009.8 hPa | 1.27 mm | - | 141 W/m² | - |
| 1777482280 | 11.67° C | 95% | 1009.9 hPa | 0 mm | - | 115 W/m² | - |
| 1777481977 | 11.67° C | 95% | 1010 hPa | 0 mm | - | 105 W/m² | - |
| 1777481675 | 11.67° C | 95% | 1010.2 hPa | 0 mm | - | 76 W/m² | - |
| 1777481372 | 11.11° C | 95% | 1010.3 hPa | 0 mm | - | 98 W/m² | - |
| 1777481068 | 11.11° C | 95% | 1010.5 hPa | 1.78 mm | - | 129 W/m² | - |
| 1777480765 | 11.11° C | 95% | 1011 hPa | 1.78 mm | - | 119 W/m² | - |
| 1777480462 | 10.56° C | 94% | 1011.1 hPa | 0 mm | - | 55 W/m² | - |
| 1777480157 | 11.11° C | 94% | 1011.3 hPa | 0 mm | - | 35 W/m² | - |
| 1777479854 | 11.11° C | 93% | 1011.7 hPa | 0 mm | - | 35 W/m² | - |
| 1777479551 | 11.11° C | 92% | 1011.6 hPa | 0 mm | - | 22 W/m² | - |
| 1777479249 | 11.67° C | 91% | 1011.8 hPa | 0 mm | - | 20 W/m² | - |
| 1777478946 | 11.67° C | 91% | 1011.7 hPa | 0 mm | - | 21 W/m² | - |
| 1777478642 | 11.67° C | 91% | 1011.2 hPa | 0 mm | - | 23 W/m² | - |
| 1777478339 | 11.67° C | 91% | 1011.4 hPa | 0 mm | - | 18 W/m² | - |
| 1777478035 | 11.67° C | 92% | 1010.7 hPa | 0 mm | - | 72 W/m² | - |
* Rain latest hour (hover to see other rain measurements)
** Current wind speed in m/s (hover to see current wind gust speed)